www.pogodaiklimat.ru

Погода и климат >> Архив погоды >> Россия >> Краснодарский край >> Тамань


ПОГОДА в Тамани

  • Прогноз погоды в Тамани
  • Монитор погоды в Тамани
  • Климат города

АРХИВ ПОГОДЫ в Тамани

Время (UTC), дата Ветер
(напр.,м/с)
 
Видим.   Явления Облачность Т
(С)
Тd
(С)
f
(%)
Тe
(С)
Тes
(С)
Комфортность P
(гПа)
Po
(гПа)
Тmin
(С)
Tmax
(С)
R
(мм)
R24
(мм)
S
(см)
03 5.12 С 4 10 км 10/10 600 м
[Sc]
+5.3 +4.1 92 +1 +1 1015.6 1013.6 +5.1 6
06 5.12 С 2 20 км 10/10 600 м
[Sc]
+5.1 +3.1 87 +2 +2 1016.6 1014.6 +5.0
09 5.12 С 2 20 км 10/8 600 м
[Sc As trans]
+4.8 +1.3 78 +2 +2 1017.5 1015.5
12 5.12 С 3 20 км 10/10 600 м
[Sc]
+4.4 -0.3 71 +1 +1 1017.3 1015.3
15 5.12 С 3 10 км 10/4 1000 м
[Sc Ac As Ci ing]
+4.0 -1.1 69 +1 +1 1017.9 1015.9 +5.3
18 5.12 С 3 10 км 10/3 600 м
[Cu med, cong Ac und]
+4.1 -0.2 74 +1 +1 1018.3 1016.3
21 5.12 С 3 10 км 1/1 600 м
[Sc]
+4.0 -1.7 66 +1 +1 1018.2 1016.2
00 6.12 СЗ 4 10 км 10/10 600 м
[Sc]
+4.4 +0.2 74 0 0 1018.1 1016.1
03 6.12 СЗ 4 10 км 8/8 1000 м
[Cu med, cong]
+3.9 -0.1 75 -0 -0 1017.9 1015.9 +3.9
06 6.12 З 3 20 км 4/4 1000 м
[Cu med, cong]
+2.7 -0.5 79 -1 -1 1018.5 1016.5 +2.7
09 6.12 СЗ 4 20 км 3/3 1000 м
[Cu med, cong]
+4.4 -0.6 70 0 +2 1018.5 1016.5
12 6.12 З 7-10
{10}
20 км 8/8 600 м
[Cb calv]
+3.3 -2.8 64 -2 -2 1018.3 1016.3
15 6.12 З 2
{11}
10 км 1/0
[Ac lent]
+2.1 -4.1 64 -1 -1 1018.3 1016.3 +4.6
18 6.12 ЮЗ 3 10 км 10/10 1000 м
[Sc]
+3.9 -1.5 68 0 0 1017.4 1015.4
21 6.12 З 5 10 км слабый дождь 10/0
[As op]
+5.0 +1.7 79 0 0 1016.2 1014.2
00 7.12 З 4
{10}
10 км {дождь} 10/10 1500 м
[Sc]
+4.9 +3.0 87 +1 +1 1015.3 1013.3
03 7.12 З 3 10 км 10/10 1000 м
[Sc]
+5.0 +3.1 88 +1 +1 1014.8 1012.8 +1.2 1
06 7.12 З 6-10
{13}
20 км в посл. час дождь 10/10 600 м
[Sc]
+5.2 +2.8 84 0 0 1014.7 1012.8
09 7.12 СЗ 5-10
{11}
4000 м слабый дождь 10/10 300 м
[Frnb Ns]
+5.4 +3.6 88 +1 +1 1015.4 1013.5
12 7.12 СЗ 5
{11}
10 км слабый дождь 10/10 600 м
[Frnb Ns]
+5.1 +3.1 87 0 0 1016.3 1014.3
15 7.12 СЗ 3 10 км слабый дождь 10/10 300 м
[Frnb]
+4.9 +3.1 88 +1 +1 1017.5 1015.6 +5.9 2
18 7.12 З 4 4000 м слабый дождь 10/10 300 м
[Frnb Ns]
+5.6 +4.3 91 +2 +2 1018.0 1016.0
21 7.12 З 5
{11}
10 км в посл. час дождь 10/10 300 м
[Sc]
+5.4 +3.9 90 +1 +1 1017.9 1015.9
00 8.12 З 6-10
{11}
4000 м в посл. час дождь 10/10 300 м
[Sc]
+5.8 +4.5 91 +1 +1 1018.0 1016.0
03 8.12 З 4
{10}
4000 м слабый дождь 10/10 300 м
[Sc]
+5.7 +4.6 93 +2 +2 1018.7 1016.7 +4.9 3
06 8.12 З 3 10 км {дождь} 10/10 300 м
[Sc]
+5.7 +4.6 93 +2 +2 1019.8 1017.8
09 8.12 З 2 10 км 10/10 300 м
[Sc]
+7.3 +4.9 85 +5 +5 1019.8 1017.8
12 8.12 С 1 20 км 10/10 300 м
[Sc]
+7.8 +5.2 84 +7 +7 1019.3 1017.3
15 8.12 Ю 1 10 км 9/9 600 м
[Sc]
+7.6 +5.6 87 +7 +7 1019.3 1017.4 +8.8 0.3
18 8.12 Ю 1 10 км ясно +5.9 +4.6 91 +5 +5 1019.5 1017.5
21 8.12 ЮЗ 3 10 км 4/0
[Ac trans Ci fib]
+9.7 +5.1 73 +8 +8 1019.4 1017.4
00 9.12 Ю 4 10 км 8/5 1000 м
[Sc Ac trans]
+10.3 +6.2 76 +8 +8 1019.2 1017.2
03 9.12 Ю 6-11
{11}
10 км 5/0
[Ac trans Ci fib]
+10.0 +6.2 77 +7 +7 1018.9 1016.9 +5.3
06 9.12 Ю 5-10
{11}
20 км 8/6 1000 м
[Sc Ac trans]
+10.9 +6.0 72 +8 +8 1018.6 1016.7
09 9.12 Ю 5-11
{12}
20 км ясно +13.0 +7.1 67 +11 +13 1018.1 1016.2
12 9.12 Ю 6-12
{14}
20 км 3/0
[Ci fib]
+12.7 +8.1 74 +10 +11 1017.6 1015.6
15 9.12 Ю 4
{12}
10 км 6/4 1000 м
[Cu med, cong Ci fib]
+11.0 +7.5 79 +9 +9 1017.3 1015.4 +13.3
18 9.12 Ю 5-11
{11}
10 км 4/3 1000 м
[Cu med, cong Ci sp]
+10.9 +7.7 81 +8 +8 1016.9 1015.0
21 9.12 Ю 4-10
{12}
10 км 1/1 1000 м
[Cu med, cong]
+10.8 +8.7 87 +8 +8 1016.9 1015.0
00 10.12 Ю 4
{10}
10 км 8/8 1000 м
[Cu med, cong]
+10.7 +8.4 86 +8 +8 1016.6 1014.6
03 10.12 Ю 5
{11}
10 км ясно +10.7 +8.4 86 +8 +8 1015.3 1013.4 +10.4
06 10.12 ЮВ 5
{11}
20 км 1/1 1000 м
[Cu med, cong]
+11.2 +9.3 88 +8 +9 1014.3 1012.4
09 10.12 Ю 5-10
{13}
20 км 1/1 1000 м
[Cu hum]
+13.2 +9.6 79 +11 +13 1012.8 1010.8
12 10.12 ЮВ 6-11
{13}
20 км 1/0
[Ci ing]
+13.0 +9.3 78 +11 +11 1010.2 1008.3
15 10.12 Ю 7-13
{15}
10 км 10/8 1000 м
[Cu med, cong Ac As]
+12.1 +8.3 78 +9 +9 1008.5 1006.6 +13.4
18 10.12 ЮЗ 6-13
{15}
10 км слабый дождь 10/10 1000 м
[Sc]
+9.9 +6.1 77 +6 +6 1010.7 1008.8
21 10.12 З 7-13
{18}
10 км {ливн. осадки, дождь} 8/8 1000 м
[Sc]
+6.4 +2.5 76 +2 +2 1014.8 1012.8
00 11.12 З 4
{17}
10 км {ливн. осадки, дождь} 5/5 1000 м
[Sc]
+4.5 -0.3 71 +1 +1 1019.0 1017.0
03 11.12 З 2
{10}
10 км 6/6 1000 м
[Sc]
+3.9 -1.0 70 +1 +1 1021.6 1019.6 +3.7 2
06 11.12 Ю 2 20 км 9/5 1000 м
[Sc As trans Cs]
+4.4 +0.1 74 +2 +2 1023.2 1021.2 +2.6
09 11.12 ЮЗ 4 20 км 9/4 1000 м
[Cu med, cong Ac trans Ci fib]
+9.0 +1.8 61 +6 +7 1023.1 1021.1
12 11.12 ЮЗ 5-10
{13}
20 км 8/3 600 м
[Cu med, cong Ac trans Ci fib]
+9.7 +1.5 57 +7 +7 1023.0 1021.0
15 11.12 Ю 6-10
{12}
10 км 6/5 600 м
[Cu med, cong Ci fib]
+9.6 +3.3 65 +6 +6 1023.5 1021.5 +10.1
18 11.12 Ю 6-14
{15}
10 км 8/5 600 м
[Cu med, cong Ci fib]
+10.4 +6.4 76 +7 +7 1022.6 1020.7
21 11.12 Ю 6-12
{13}
10 км 4/4 1000 м
[Cu med, cong]
+10.7 +7.6 81 +8 +8 1022.4 1020.4
00 12.12 Ю 5
{12}
10 км 8/8 1000 м
[Cu med, cong]
+11.3 +8.7 84 +9 +9 1022.6 1020.6

 

Местоположение метеостанции Тамань (Краснодарский край, Россия): широта 45.22 долгота 36.72 высота над уровнем моря 17 м.

В архиве по умолчанию представлена погода в Тамани за последнюю неделю. Архивные данные за месяц целиком и за предыдущие месяцы, начиная с января 2011 года, Вы можете получить, выбрав интересующий диапазон дат из раскрывающегося списка и нажав кнопку "Ввод!".

Внимание! Время в таблицах - всемирное. Для получения местного времени необходимо прибавить поправку, которая в Тамани равна 3 ч.

Смотрите также архив погоды в соседних городах и на ближайших метеорологических станциях:

Погода в Керчи (Крым, Россия) (28 км)
Погода в Темрюке (Краснодарский край, Россия) (53 км)
Погода в Анапе (Краснодарский край, Россия) (58 км)
Погода на Мысовом (Крым, Россия) (75 км)
Погода в Новороссийске (Краснодарский край, Россия) (105 км)
Погода в Крымске (Краснодарский край, Россия) (106 км)
Погода в Феодосии (Крым, Россия) (107 км)
Погода в Славянске-на-Кубани (Краснодарский край, Россия) (110 км)
Погода в Геленджике (Краснодарский край, Россия) (129 км)
Погода в Приморско-Ахтарске (Краснодарский край, Россия) (143 км)

Пояснения к столбцам:

Ветер - указаны скорость ветра в м/с - средняя за 10 мин, порывы в срок и между сроками (в фигурных скобках) и направление, откуда дует ветер: С - северный, СВ - северо-восточный, В - восточный, ЮВ - юго-восточный, Ю - южный, ЮЗ - юго-западный, З - западный, СЗ - северо-западный.
Видимость - горизонтальная дальность видимости в метрах или километрах. При видимости от 1 до 10 км при отсутствии осадков обычно наблюдается дымка, при ухудшении видимости до 1 км и менее - туман. В сухую погоду видимость может ухудшаться дымом, пылью или мглою.
Явления - указаны атмосферные явления, наблюдавшиеся в срок или в последний час перед сроком; фигурными скобками обозначены явления, наблюдавшиеся между сроками (за 1-3 часа до срока); квадратными скобками обозначены град или гололедные отложения с указанием их диаметра в мм.
Облачность - указаны через наклонную черту общая и нижняя облачность в баллах и высота нижней границы облаков в метрах; квадратными скобками обозначены формы облаков: Ci - перистые, Cs - перисто-слоистые, Cc - перисто-кучевые, Ac - высококучевые, As - высокослоистые, Sc - слоисто-кучевые, Ns - слоисто-дождевые, Cu - кучевые, Cb - кучево-дождевые. Подробнее классификацию облаков см. в Атласе облаков (PDF).
T - Температура воздуха - температура, измеренная на высоте 2 м над землей.
Td - Температура точки росы - температура, при понижении до которой содержащийся в воздухе водяной пар достигнет насыщения.
f - Относительная влажность воздуха - влажноcть воздуха, измеренная на высоте 2 м над землей.
Te - Эффективная температура - температура, которую ощущает одетый по сезону человек в тени. Характеристика душности погоды. При расчете учитывается влияние влажности воздуха и скорости ветра на теплоощущения человека.
Tes - Эффективная температура на солнце - температура, которую ощущает человек, с поправкой на солнечный нагрев. Характеристика знойности погоды. Зависит от высоты солнца над горизонтом, облачности и скорости ветра. Ночью, в пасмурную погоду, а также при ветре 12 м/с и более поправка равна нулю.
P - Атмосферное давление - приведенное к уровню моря атмосферное давление.
Po - Атмосферное давление - измеренное на уровне метеостанции атмосферное давление.
Tmin - Минимальная температура - минимум температуры воздуха на высоте 2 м над землей.
Tmax - Максимальная температура - максимум температуры воздуха на высоте 2 м над землей.
R - Количество осадков - Количество выпавших осадков за период времени, мм. При наведении курсора мыши на число - период времени, за который выпало указанное количество осадков.
R24 - Количество осадков - Количество выпавших осадков за 24 часа, мм.
S - Снежный покров - Высота снежного покрова, см. При наведении курсора мыши на число - состояние снежного покрова и степень покрытия местности в баллах.